Tiempo cada hora Catu

Hoy, 16 Enero, Sábado

Tiempo Temperatura Precipitaciones Viento Presión Humedad
00:00 +24°C° 0 mm 1 mps 750 mmHg 97%
01:00 +24°C° 0.1 mm 1 mps 750 mmHg 97%
02:00 +24°C° 0.1 mm 1 mps 750 mmHg 97%
03:00 +24°C° 0.1 mm 1 mps 749 mmHg 97%
04:00 +24°C° 0 mm 1 mps 750 mmHg 96%
05:00 +24°C° 0 mm 1 mps 750 mmHg 96%
06:00 +24°C° 0 mm 1 mps 751 mmHg 95%
07:00 +26°C° 0 mm 1 mps 751 mmHg 82%
08:00 +28°C° 0 mm 2 mps 751 mmHg 69%
09:00 +30°C° 0 mm 2 mps 751 mmHg 56%
10:00 +31°C° 0.2 mm 2 mps 751 mmHg 57%
11:00 +31°C° 0.2 mm 3 mps 751 mmHg 57%
12:00 +31°C° 0.2 mm 3 mps 751 mmHg 57%
13:00 +32°C° 0.2 mm 4 mps 750 mmHg 56%
14:00 +33°C° 0.2 mm 4 mps 750 mmHg 54%
15:00 +33°C° 0.2 mm 4 mps 749 mmHg 52%
16:00 +30°C° 0 mm 4 mps 749 mmHg 60%
17:00 +28°C° 0 mm 3 mps 749 mmHg 68%
18:00 +27°C° 0 mm 3 mps 749 mmHg 75%
19:00 +26°C° 0 mm 2 mps 750 mmHg 81%
20:00 +25°C° 0 mm 2 mps 750 mmHg 86%
21:00 +24°C° 0 mm 1 mps 751 mmHg 91%
22:00 +23°C° 0 mm 1 mps 751 mmHg 93%
23:00 +23°C° 0 mm 1 mps 751 mmHg 94%

Mañana, 17 Enero, Domingo

Tiempo Temperatura Precipitaciones Viento Presión Humedad
00:00 +23°C° 0 mm 1 mps 751 mmHg 95%
01:00 +23°C° 0 mm 1 mps 750 mmHg 96%
02:00 +22°C° 0 mm 1 mps 750 mmHg 96%
03:00 +22°C° 0 mm 1 mps 750 mmHg 96%
04:00 +22°C° 0 mm 1 mps 750 mmHg 95%
05:00 +21°C° 0 mm 0 mps 750 mmHg 93%
06:00 +21°C° 0 mm 0 mps 750 mmHg 92%
07:00 +25°C° 0 mm 1 mps 751 mmHg 80%
08:00 +28°C° 0 mm 2 mps 751 mmHg 68%
09:00 +30°C° 0 mm 2 mps 752 mmHg 56%
10:00 +33°C° 0 mm 3 mps 751 mmHg 52%
11:00 +34°C° 0 mm 3 mps 751 mmHg 47%
12:00 +35°C° 0 mm 3 mps 750 mmHg 43%
13:00 +34°C° 0 mm 4 mps 750 mmHg 46%
14:00 +33°C° 0 mm 4 mps 750 mmHg 49%
15:00 +33°C° 0 mm 4 mps 749 mmHg 52%
16:00 +30°C° 0 mm 4 mps 749 mmHg 59%
17:00 +29°C° 0 mm 3 mps 749 mmHg 65%
18:00 +27°C° 0 mm 3 mps 749 mmHg 72%
19:00 +26°C° 0 mm 2 mps 750 mmHg 78%
20:00 +24°C° 0 mm 2 mps 750 mmHg 84%
21:00 +23°C° 0 mm 1 mps 751 mmHg 90%
22:00 +23°C° 0 mm 1 mps 750 mmHg 92%
23:00 +23°C° 0 mm 1 mps 750 mmHg 94%

Pasado mañana, 18 Enero, Lunes

Tiempo Temperatura Precipitaciones Viento Presión Humedad
00:00 +22°C° 0 mm 1 mps 750 mmHg 96%
01:00 +20°C° 0 mm 0 mps 750 mmHg 96%
02:00 +20°C° 0 mm 0 mps 750 mmHg 96%
03:00 +20°C° 0 mm 0 mps 750 mmHg 96%
04:00 +20°C° 0 mm 0 mps 750 mmHg 95%
05:00 +21°C° 0 mm 0 mps 750 mmHg 94%
06:00 +21°C° 0 mm 0 mps 751 mmHg 93%
07:00 +26°C° 0 mm 1 mps 751 mmHg 80%
08:00 +28°C° 0 mm 1 mps 751 mmHg 67%
09:00 +31°C° 0 mm 2 mps 752 mmHg 54%
10:00 +32°C° 0 mm 2 mps 751 mmHg 50%
11:00 +33°C° 0 mm 3 mps 751 mmHg 47%
12:00 +34°C° 0 mm 3 mps 751 mmHg 44%
13:00 +34°C° 0 mm 3 mps 750 mmHg 44%
14:00 +34°C° 0 mm 4 mps 750 mmHg 44%
15:00 +34°C° 0 mm 4 mps 749 mmHg 45%
16:00 +31°C° 0 mm 3 mps 749 mmHg 53%
17:00 +29°C° 0 mm 3 mps 749 mmHg 61%
18:00 +27°C° 0 mm 3 mps 749 mmHg 69%
19:00 +26°C° 0 mm 2 mps 750 mmHg 76%
20:00 +25°C° 0 mm 2 mps 750 mmHg 84%
21:00 +24°C° 0 mm 1 mps 751 mmHg 92%
22:00 +23°C° 0 mm 1 mps 751 mmHg 93%
23:00 +23°C° 0 mm 1 mps 750 mmHg 95%

19 Enero, Martes

Tiempo Temperatura Precipitaciones Viento Presión Humedad
00:00 +23°C° 0 mm 1 mps 750 mmHg 96%
01:00 +23°C° 0 mm 1 mps 750 mmHg 97%
02:00 +23°C° 0 mm 1 mps 750 mmHg 97%
03:00 +23°C° 0 mm 1 mps 750 mmHg 97%
04:00 +21°C° 0 mm 0 mps 750 mmHg 97%
05:00 +21°C° 0 mm 0 mps 751 mmHg 96%
06:00 +22°C° 0 mm 0 mps 751 mmHg 95%
07:00 +26°C° 0 mm 1 mps 752 mmHg 83%
08:00 +28°C° 0 mm 2 mps 752 mmHg 71%
09:00 +31°C° 0 mm 2 mps 752 mmHg 59%
10:00 +33°C° 0.1 mm 3 mps 752 mmHg 56%
11:00 +33°C° 0.1 mm 3 mps 752 mmHg 52%
12:00 +34°C° 0.1 mm 3 mps 751 mmHg 49%
13:00 +34°C° 0 mm 3 mps 751 mmHg 48%
14:00 +34°C° 0 mm 4 mps 750 mmHg 48%
15:00 +34°C° 0 mm 4 mps 750 mmHg 47%
16:00 +32°C° 0 mm 4 mps 750 mmHg 56%
17:00 +29°C° 0 mm 3 mps 750 mmHg 64%
18:00 +27°C° 0 mm 3 mps 750 mmHg 72%
19:00 +26°C° 0 mm 2 mps 750 mmHg 80%
20:00 +25°C° 0 mm 2 mps 751 mmHg 88%
21:00 +24°C° 0 mm 1 mps 751 mmHg 95%
22:00 +23°C° 0 mm 1 mps 751 mmHg 96%
23:00 +23°C° 0 mm 1 mps 751 mmHg 96%

20 Enero, Miércoles

Tiempo Temperatura Precipitaciones Viento Presión Humedad
00:00 +23°C° 0 mm 1 mps 751 mmHg 96%
01:00 +23°C° 0 mm 1 mps 751 mmHg 96%
02:00 +21°C° 0 mm 0 mps 751 mmHg 96%
03:00 +20°C° 0 mm 0 mps 750 mmHg 96%
04:00 +21°C° 0 mm 0 mps 751 mmHg 95%
05:00 +21°C° 0 mm 0 mps 751 mmHg 94%
06:00 +21°C° 0 mm 0 mps 752 mmHg 93%
07:00 +26°C° 0 mm 1 mps 752 mmHg 79%
08:00 +28°C° 0 mm 2 mps 752 mmHg 66%
09:00 +31°C° 0 mm 2 mps 752 mmHg 52%
10:00 +33°C° 0.1 mm 3 mps 752 mmHg 50%
11:00 +34°C° 0.1 mm 3 mps 752 mmHg 48%
12:00 +34°C° 0.1 mm 3 mps 751 mmHg 46%
13:00 +34°C° 0 mm 3 mps 751 mmHg 44%
14:00 +35°C° 0 mm 4 mps 750 mmHg 42%
15:00 +35°C° 0 mm 4 mps 749 mmHg 40%
16:00 +33°C° 0 mm 4 mps 750 mmHg 49%
17:00 +29°C° 0 mm 3 mps 750 mmHg 59%
18:00 +27°C° 0 mm 3 mps 750 mmHg 68%
19:00 +26°C° 0 mm 2 mps 751 mmHg 77%
20:00 +25°C° 0 mm 2 mps 751 mmHg 85%
21:00 +24°C° 0 mm 1 mps 752 mmHg 93%
22:00 +23°C° 0 mm 1 mps 751 mmHg 95%
23:00 +23°C° 0 mm 1 mps 751 mmHg 96%

21 Enero, Jueves

Tiempo Temperatura Precipitaciones Viento Presión Humedad
00:00 +23°C° 0 mm 1 mps 751 mmHg 97%
01:00 +23°C° 0 mm 1 mps 751 mmHg 97%
02:00 +23°C° 0 mm 1 mps 751 mmHg 97%
03:00 +23°C° 0 mm 1 mps 751 mmHg 97%
04:00 +23°C° 0.1 mm 1 mps 751 mmHg 96%
05:00 +23°C° 0.1 mm 1 mps 752 mmHg 95%
06:00 +23°C° 0.1 mm 1 mps 752 mmHg 94%
07:00 +25°C° 0.1 mm 2 mps 753 mmHg 83%
08:00 +28°C° 0.1 mm 2 mps 753 mmHg 71%
09:00 +30°C° 0.1 mm 3 mps 753 mmHg 60%
10:00 +31°C° 0.1 mm 3 mps 753 mmHg 55%
11:00 +33°C° 0.1 mm 3 mps 753 mmHg 51%
12:00 +34°C° 0.1 mm 4 mps 752 mmHg 47%
13:00 +33°C° 0 mm 4 mps 752 mmHg 47%
14:00 +33°C° 0 mm 4 mps 751 mmHg 47%
15:00 +33°C° 0 mm 4 mps 751 mmHg 48%
16:00 +30°C° 0 mm 3 mps 751 mmHg 57%
17:00 +28°C° 0 mm 3 mps 751 mmHg 66%
18:00 +26°C° 0 mm 2 mps 751 mmHg 75%
19:00 +25°C° 0 mm 2 mps 752 mmHg 80%
20:00 +24°C° 0 mm 1 mps 752 mmHg 85%
21:00 +23°C° 0 mm 1 mps 752 mmHg 91%
22:00 +21°C° 0 mm 0 mps 752 mmHg 92%
23:00 +20°C° 0 mm 0 mps 752 mmHg 93%
Mostrar más